When you browse on this site, cookies collect data to enhance your experience and personalize the content and advertising you see.
Visit our Privacy Policy to learn more. By continuing to use the site, you agree to this use of cookies and data.
  • In United Kingdom
  • List of Countries
  • For 7 days
  • Water Temperature
  • Weather Map
  • Weather Widgets
  • user-avatar
    Login

    Hourly Weather Nesebyr

    Today, 15 November, Friday

    Time Temperature Precipitation Wind Pressure Humidity
    00:00 +15°C° 0 mm 4 mps 757 mmHg 84%
    01:00 +14°C° 0 mm 3 mps 757 mmHg 86%
    02:00 +14°C° 0 mm 3 mps 757 mmHg 88%
    03:00 +15°C° 0 mm 2 mps 758 mmHg 90%
    04:00 +14°C° 0 mm 2 mps 758 mmHg 91%
    05:00 +14°C° 0 mm 2 mps 758 mmHg 92%
    06:00 +14°C° 0 mm 1 mps 759 mmHg 91%
    07:00 +14°C° 0 mm 1 mps 759 mmHg 91%
    08:00 +14°C° 0 mm 1 mps 760 mmHg 91%
    09:00 +16°C° 0 mm 1 mps 760 mmHg 82%
    10:00 +18°C° 0 mm 2 mps 760 mmHg 74%
    11:00 +19°C° 0 mm 2 mps 760 mmHg 65%
    12:00 +20°C° 0 mm 2 mps 760 mmHg 61%
    13:00 +21°C° 0 mm 2 mps 760 mmHg 58%
    14:00 +23°C° 0 mm 2 mps 761 mmHg 54%
    15:00 +20°C° 0 mm 2 mps 761 mmHg 59%
    16:00 +19°C° 0 mm 2 mps 761 mmHg 64%
    17:00 +19°C° 0 mm 1 mps 761 mmHg 68%
    18:00 +18°C° 0 mm 1 mps 761 mmHg 71%
    19:00 +18°C° 0 mm 1 mps 762 mmHg 73%
    20:00 +16°C° 0 mm 1 mps 762 mmHg 75%
    21:00 +16°C° 0 mm 1 mps 762 mmHg 76%
    22:00 +16°C° 0 mm 1 mps 763 mmHg 77%
    23:00 +15°C° 0 mm 1 mps 763 mmHg 78%

    Tomorrow, 16 November, Saturday

    Time Temperature Precipitation Wind Pressure Humidity
    00:00 +15°C° 0 mm 1 mps 763 mmHg 79%
    01:00 +15°C° 0 mm 1 mps 763 mmHg 80%
    02:00 +15°C° 0 mm 1 mps 763 mmHg 81%
    03:00 +14°C° 0 mm 1 mps 763 mmHg 81%
    04:00 +14°C° 0 mm 1 mps 763 mmHg 82%
    05:00 +14°C° 0 mm 1 mps 763 mmHg 82%
    06:00 +13°C° 0 mm 0 mps 764 mmHg 81%
    07:00 +13°C° 0 mm 0 mps 764 mmHg 79%
    08:00 +14°C° 0 mm 0 mps 764 mmHg 77%
    09:00 +15°C° 0 mm 0 mps 764 mmHg 70%
    10:00 +17°C° 0 mm 0 mps 764 mmHg 63%
    11:00 +21°C° 0 mm 1 mps 764 mmHg 56%
    12:00 +22°C° 0 mm 1 mps 764 mmHg 55%
    13:00 +21°C° 0 mm 2 mps 764 mmHg 54%
    14:00 +22°C° 0 mm 3 mps 764 mmHg 53%
    15:00 +20°C° 0 mm 3 mps 764 mmHg 62%
    16:00 +19°C° 0 mm 3 mps 764 mmHg 72%
    17:00 +17°C° 0 mm 3 mps 763 mmHg 81%
    18:00 +16°C° 0 mm 3 mps 764 mmHg 85%
    19:00 +16°C° 0 mm 2 mps 764 mmHg 88%
    20:00 +15°C° 0 mm 2 mps 764 mmHg 92%
    21:00 +15°C° 0 mm 2 mps 764 mmHg 93%
    22:00 +15°C° 0 mm 2 mps 764 mmHg 93%
    23:00 +15°C° 0 mm 2 mps 764 mmHg 94%

    Day after tomorrow, 17 November, Sunday

    Time Temperature Precipitation Wind Pressure Humidity
    00:00 +15°C° 0 mm 2 mps 764 mmHg 94%
    01:00 +14°C° 0 mm 2 mps 764 mmHg 94%
    02:00 +14°C° 0 mm 2 mps 763 mmHg 95%
    03:00 +14°C° 0 mm 2 mps 763 mmHg 95%
    04:00 +14°C° 0 mm 2 mps 763 mmHg 95%
    05:00 +14°C° 0 mm 2 mps 763 mmHg 95%
    06:00 +15°C° 0 mm 2 mps 763 mmHg 95%
    07:00 +14°C° 0 mm 3 mps 763 mmHg 94%
    08:00 +14°C° 0 mm 3 mps 763 mmHg 94%
    09:00 +16°C° 0 mm 3 mps 763 mmHg 88%
    10:00 +17°C° 0 mm 3 mps 763 mmHg 81%
    11:00 +18°C° 0 mm 4 mps 763 mmHg 75%
    12:00 +18°C° 0 mm 4 mps 763 mmHg 73%
    13:00 +19°C° 0 mm 4 mps 762 mmHg 71%
    14:00 +19°C° 0 mm 4 mps 762 mmHg 70%
    15:00 +18°C° 0 mm 3 mps 762 mmHg 76%
    16:00 +17°C° 0 mm 3 mps 761 mmHg 82%
    17:00 +16°C° 0 mm 2 mps 761 mmHg 88%
    18:00 +15°C° 0 mm 2 mps 761 mmHg 90%
    19:00 +15°C° 0 mm 2 mps 761 mmHg 93%
    20:00 +14°C° 0 mm 2 mps 762 mmHg 95%
    21:00 +14°C° 0 mm 2 mps 761 mmHg 95%
    22:00 +14°C° 0 mm 1 mps 761 mmHg 95%
    23:00 +14°C° 0 mm 1 mps 761 mmHg 95%

    18 November, Monday

    Time Temperature Precipitation Wind Pressure Humidity
    00:00 +14°C° 0 mm 1 mps 761 mmHg 95%
    01:00 +14°C° 0 mm 1 mps 761 mmHg 94%
    02:00 +14°C° 0 mm 1 mps 760 mmHg 93%
    03:00 +14°C° 0 mm 1 mps 760 mmHg 92%
    04:00 +14°C° 0 mm 1 mps 760 mmHg 92%
    05:00 +14°C° 0 mm 1 mps 760 mmHg 91%
    06:00 +14°C° 0 mm 1 mps 760 mmHg 89%
    07:00 +14°C° 0 mm 1 mps 760 mmHg 88%
    08:00 +15°C° 0 mm 1 mps 760 mmHg 86%
    09:00 +16°C° 0 mm 2 mps 761 mmHg 77%
    10:00 +18°C° 0 mm 2 mps 761 mmHg 68%
    11:00 +20°C° 0 mm 3 mps 761 mmHg 59%
    12:00 +21°C° 0 mm 3 mps 761 mmHg 57%
    13:00 +21°C° 0 mm 4 mps 761 mmHg 55%
    14:00 +22°C° 0 mm 4 mps 761 mmHg 54%
    15:00 +21°C° 0 mm 4 mps 761 mmHg 58%
    16:00 +20°C° 0 mm 3 mps 761 mmHg 63%
    17:00 +18°C° 0 mm 2 mps 761 mmHg 68%
    18:00 +18°C° 0 mm 2 mps 761 mmHg 72%
    19:00 +17°C° 0 mm 2 mps 762 mmHg 76%
    20:00 +17°C° 0 mm 2 mps 762 mmHg 80%
    21:00 +16°C° 0 mm 2 mps 762 mmHg 82%
    22:00 +16°C° 0 mm 2 mps 762 mmHg 85%
    23:00 +16°C° 0 mm 2 mps 762 mmHg 88%

    19 November, Tuesday

    Time Temperature Precipitation Wind Pressure Humidity
    00:00 +16°C° 0 mm 1 mps 762 mmHg 89%
    01:00 +15°C° 0 mm 1 mps 762 mmHg 90%
    02:00 +15°C° 0 mm 1 mps 762 mmHg 91%
    03:00 +15°C° 0 mm 1 mps 763 mmHg 90%
    04:00 +15°C° 0 mm 1 mps 763 mmHg 90%
    05:00 +15°C° 0 mm 1 mps 763 mmHg 90%
    06:00 +15°C° 0 mm 1 mps 763 mmHg 89%
    07:00 +15°C° 0 mm 1 mps 763 mmHg 88%
    08:00 +15°C° 0 mm 1 mps 763 mmHg 86%
    09:00 +17°C° 0 mm 2 mps 763 mmHg 78%
    10:00 +19°C° 0 mm 2 mps 763 mmHg 70%
    11:00 +21°C° 0 mm 2 mps 763 mmHg 62%
    12:00 +21°C° 0 mm 3 mps 763 mmHg 59%
    13:00 +22°C° 0 mm 3 mps 762 mmHg 55%
    14:00 +24°C° 0 mm 3 mps 762 mmHg 52%
    15:00 +21°C° 0 mm 3 mps 762 mmHg 57%
    16:00 +20°C° 0 mm 2 mps 762 mmHg 62%
    17:00 +19°C° 0 mm 2 mps 762 mmHg 67%
    18:00 +18°C° 0 mm 2 mps 762 mmHg 69%
    19:00 +18°C° 0 mm 2 mps 762 mmHg 72%
    20:00 +17°C° 0 mm 2 mps 762 mmHg 74%
    21:00 +18°C° 0 mm 1 mps 762 mmHg 75%
    22:00 +16°C° 0 mm 1 mps 762 mmHg 76%
    23:00 +16°C° 0 mm 1 mps 762 mmHg 78%

    20 November, Wednesday

    Time Temperature Precipitation Wind Pressure Humidity
    00:00 +16°C° 0 mm 1 mps 762 mmHg 79%
    01:00 +16°C° 0 mm 1 mps 762 mmHg 80%
    02:00 +16°C° 0 mm 1 mps 761 mmHg 81%
    03:00 +15°C° 0.1 mm 1 mps 761 mmHg 81%
    04:00 +15°C° 0.1 mm 1 mps 761 mmHg 80%
    05:00 +15°C° 0.1 mm 1 mps 761 mmHg 80%
    06:00 +15°C° 0.1 mm 1 mps 761 mmHg 79%
    07:00 +15°C° 0.1 mm 1 mps 761 mmHg 78%
    08:00 +15°C° 0.1 mm 1 mps 761 mmHg 77%
    09:00 +18°C° 0 mm 1 mps 761 mmHg 70%
    10:00 +20°C° 0 mm 1 mps 761 mmHg 63%
    11:00 +20°C° 0 mm 2 mps 761 mmHg 57%
    12:00 +21°C° 0 mm 2 mps 760 mmHg 55%
    13:00 +21°C° 0 mm 2 mps 760 mmHg 54%
    14:00 +21°C° 0 mm 3 mps 760 mmHg 52%
    15:00 +20°C° 0.7 mm 3 mps 760 mmHg 61%
    16:00 +18°C° 0.7 mm 4 mps 760 mmHg 69%
    17:00 +15°C° 0.7 mm 4 mps 760 mmHg 77%
    18:00 +16°C° 1.2 mm 3 mps 760 mmHg 80%
    19:00 +15°C° 1.2 mm 2 mps 760 mmHg 83%
    20:00 +15°C° 1.2 mm 1 mps 760 mmHg 86%
    21:00 +15°C° 0.5 mm 1 mps 761 mmHg 87%
    22:00 +15°C° 0.5 mm 1 mps 761 mmHg 87%
    23:00 +15°C° 0.5 mm 1 mps 761 mmHg 87%
    Show more